GFSSW_850_temp_021.txt.gz
Temp
11 11 12 13 13 14 14 14 14 15 16 16 17 17 17 18 19 20 21 23 23 22 22 21 21 21 20 20 21 21 16 16 18 19 20 23 23 25 25 26 27 26 27 27 26
11 11 11 11 11 12 13 13 14 14 15 15 15 16 16 16 18 20 23 22 23 23 21 22 21 20 19 20 21 19 15 18 21 20 20 22 22 23 24 25 25 27 27 27 26
9 10 10 11 12 12 11 11 12 13 14 15 15 15 15 15 15 20 22 23 23 23 22 20 20 20 19 20 20 18 19 21 22 23 22 22 22 23 24 22 25 26 27 27 25
6 7 8 8 9 11 12 12 12 12 12 13 13 14 14 13 14 21 22 22 22 22 21 19 19 19 17 17 20 19 19 21 22 23 22 21 23 23 24 24 26 26 27 27 25
5 5 5 6 7 8 8 9 9 9 10 10 10 11 12 11 13 20 21 21 21 21 21 20 19 19 17 17 19 18 19 21 22 22 22 22 22 23 24 25 26 26 27 27 26
4 4 5 5 5 5 5 6 8 9 8 8 7 5 6 4 16 19 19 19 18 20 20 19 20 20 19 19 18 20 20 20 21 21 22 22 22 23 24 25 26 25 26 26 26
4 4 5 5 5 5 6 6 6 7 8 7 5 5 4 8 16 17 18 19 19 19 20 20 20 20 20 18 21 20 18 19 20 21 21 23 21 22 24 25 26 25 26 26 26
6 6 5 5 6 6 6 7 8 7 6 6 5 4 4 11 15 16 16 19 18 18 19 19 19 19 19 19 19 18 17 17 20 21 22 22 20 22 25 25 25 26 26 26 26
5 6 5 6 6 6 7 8 8 8 8 4 3 3 5 11 15 19 18 18 19 17 17 17 18 18 18 16 14 15 17 17 19 20 20 20 20 21 25 24 24 25 26 25 26
4 5 5 5 5 6 6 8 9 8 7 3 3 4 8 13 15 16 16 16 16 17 17 17 18 14 13 13 15 16 15 16 18 20 19 19 19 21 23 23 24 24 25 24 26
4 4 4 4 5 6 6 7 7 6 5 5 5 7 13 12 14 15 16 15 13 16 15 17 15 15 16 17 19 18 17 17 18 21 20 19 19 21 22 23 22 23 25 26 26
3 4 4 4 4 5 5 5 5 4 4 5 7 6 8 9 8 15 15 14 13 14 15 15 16 17 18 18 18 17 17 17 19 20 20 19 19 21 20 21 23 24 25 23 24
3 3 3 4 4 5 5 5 4 3 3 5 8 8 10 10 9 12 15 16 14 14 16 16 19 19 19 18 17 17 17 18 18 20 20 19 19 20 22 22 23 25 25 25 26
3 3 3 4 4 4 5 4 4 4 3 7 9 9 9 11 11 15 15 17 16 15 16 16 19 19 18 17 18 17 19 19 19 18 16 19 16 19 19 20 21 23 25 25 24
3 3 3 3 2 2 5 4 5 4 5 12 12 12 12 11 15 14 15 16 16 16 17 15 18 18 18 19 19 19 20 19 18 17 17 18 16 18 19 20 20 20 24 23 21
3 3 3 3 3 4 3 3 5 4 6 11 12 11 11 11 12 15 15 16 17 16 16 17 19 19 19 20 20 20 19 18 17 16 16 18 17 17 19 20 21 23 21 19 19
3 3 3 2 3 3 2 4 4 4 10 10 9 11 11 11 12 13 14 14 15 14 15 16 17 19 19 18 18 18 15 13 13 13 15 18 16 19 19 19 21 21 19 18 17
3 4 4 3 2 2 2 3 3 8 9 10 9 11 10 10 10 11 13 13 16 16 15 15 15 18 19 18 18 17 17 13 14 14 16 18 17 19 20 21 22 24 21 18 18
3 3 3 2 2 2 3 4 4 7 8 7 9 9 10 10 10 10 9 13 15 17 16 15 16 20 20 20 19 17 16 18 16 17 16 16 18 20 22 21 18 16 17 17 18
2 2 2 2 2 2 2 4 4 7 7 8 6 8 7 9 8 8 9 11 12 14 15 16 15 19 20 20 20 17 18 17 14 16 17 17 19 19 22 20 17 15 15 16 16
2 1 2 2 2 2 2 2 5 6 7 7 6 6 8 8 8 8 9 12 10 10 11 15 15 17 18 18 18 17 17 16 17 16 14 15 16 17 20 18 17 16 16 17 18
0 0 2 1 2 1 1 4 5 6 6 6 7 7 8 8 8 8 9 10 11 10 9 9 13 14 16 19 20 19 18 17 18 15 17 16 18 20 18 18 18 17 18 19 19
-0 0 1 1 2 2 2 3 4 4 5 6 7 7 8 7 7 8 9 10 11 10 9 9 10 14 14 17 18 19 19 19 17 14 15 18 19 19 18 17 19 17 19 18 18
1 1 1 1 2 2 3 3 4 6 6 6 6 7 7 7 8 7 9 10 11 11 11 9 8 13 15 17 18 18 19 18 19 18 19 18 20 20 19 18 17 18 18 18 18
1 1 1 1 2 2 2 3 4 3 5 6 6 6 6 7 7 7 8 10 11 10 9 7 6 10 14 18 18 20 19 20 19 19 19 20 20 19 17 17 17 19 18 17 17
1 1 1 1 1 1 2 3 3 5 3 5 5 5 5 5 7 6 8 8 9 9 8 6 6 8 12 17 18 18 19 20 20 20 20 18 19 19 18 19 18 18 17 17 17
1 1 1 2 1 -1 -0 2 3 4 5 4 5 4 5 6 7 8 8 8 9 8 8 7 6 8 9 16 17 16 18 18 20 21 21 19 19 17 18 19 18 18 18 18 19

GFSSW_850_temp_024.txt.gz
Temp
10 10 11 12 13 13 14 14 14 14 15 15 15 15 16 17 17 18 19 22 22 22 21 22 22 20 19 20 20 20 15 15 17 18 19 23 23 23 24 24 25 24 26 26 27
10 10 10 10 10 10 11 12 13 13 13 14 15 15 15 15 16 17 23 22 21 21 22 21 21 20 18 19 20 18 14 16 19 18 19 21 21 22 22 23 23 23 24 25 26
6 7 7 9 10 10 10 11 11 12 13 13 13 13 14 14 14 18 21 21 22 22 22 21 21 19 18 18 19 17 18 19 20 22 21 20 21 22 22 21 23 23 24 25 25
6 7 7 7 7 7 8 9 10 10 10 11 11 11 13 12 13 18 20 20 20 22 22 21 19 18 16 16 19 17 18 21 21 21 21 20 21 21 22 22 23 24 24 25 25
5 6 6 7 7 8 7 7 7 6 6 7 8 9 11 9 11 19 18 18 18 19 20 19 18 18 15 16 18 17 18 20 20 21 21 21 20 20 21 23 23 24 24 25 26
5 5 5 6 6 7 7 8 8 8 7 5 5 4 5 4 14 17 18 18 17 15 16 18 19 19 18 18 17 18 19 19 20 20 20 20 20 21 22 23 23 24 25 25 25
5 5 5 5 6 6 7 7 8 8 8 7 5 4 3 6 15 15 16 18 18 18 17 16 19 19 19 18 19 19 17 17 18 20 19 21 19 19 22 22 23 24 25 25 26
5 5 5 5 5 6 6 7 8 7 8 8 6 3 3 8 12 15 16 18 17 17 17 17 17 18 18 18 18 18 17 17 20 20 20 20 18 20 22 22 23 24 25 25 26
4 5 5 5 5 5 6 7 7 8 8 7 3 3 3 10 11 16 15 15 18 17 16 16 17 17 17 15 14 15 16 16 17 21 19 19 19 21 23 22 22 23 24 25 25
3 4 4 4 5 5 6 7 7 6 6 4 3 3 7 11 10 12 14 14 15 15 15 15 16 13 12 13 15 14 15 15 17 20 18 17 16 19 21 21 21 23 24 24 25
3 3 3 4 4 4 6 6 5 5 4 5 5 6 8 10 11 12 13 12 11 15 12 14 13 14 16 17 17 17 17 17 19 19 18 17 17 19 20 20 20 22 23 25 26
3 3 3 3 4 4 5 4 3 2 2 6 6 5 9 10 7 12 13 12 12 13 14 13 14 16 17 16 17 17 17 16 19 19 19 17 17 18 19 19 21 22 23 24 24
3 3 3 3 4 5 4 3 3 3 2 5 7 6 6 8 6 10 11 13 13 13 14 15 17 18 17 16 16 16 16 17 18 17 18 17 17 18 19 20 21 23 23 24 23
3 3 3 3 4 3 4 3 3 3 2 6 6 8 8 7 8 11 13 14 14 13 14 14 17 17 17 16 17 16 17 18 17 16 14 17 14 17 18 18 19 22 24 25 24
3 3 3 2 2 1 2 3 4 4 4 11 10 11 11 9 11 12 12 14 14 14 14 14 16 16 17 17 17 17 19 18 17 15 16 17 14 16 18 18 19 19 25 25 23
3 3 3 2 2 3 2 3 4 4 5 9 11 10 9 10 10 12 10 12 15 14 15 15 17 18 18 19 19 19 18 16 15 14 13 15 15 17 16 19 20 20 23 22 19
3 3 3 2 2 1 1 3 2 3 9 8 8 10 11 9 11 11 11 11 12 12 12 14 15 18 18 16 17 16 14 12 12 12 12 17 15 18 17 17 19 20 21 19 15
3 3 3 2 2 1 2 2 2 7 7 9 8 10 9 9 9 9 10 10 12 14 13 13 13 16 17 17 16 16 15 12 13 12 15 17 15 17 18 20 22 23 21 19 16
3 3 2 2 1 1 2 2 3 5 7 7 8 7 9 9 8 8 8 9 11 13 13 13 14 17 18 18 19 15 15 14 15 15 14 15 16 19 18 19 18 17 17 16 16
2 2 1 2 2 2 2 3 3 6 6 6 5 8 6 7 8 7 8 10 10 10 9 14 14 17 18 18 19 17 16 15 13 14 14 15 17 18 21 22 19 15 14 15 15
2 1 2 2 1 1 0 2 3 5 6 6 6 5 6 7 8 8 6 7 9 9 9 11 13 16 16 17 16 14 16 14 15 12 13 15 15 16 20 20 18 15 15 15 16
-0 -1 2 1 1 0 1 3 4 5 5 5 6 5 6 7 7 8 7 7 7 9 8 8 9 13 15 17 19 18 16 15 16 14 14 14 15 18 18 18 17 16 17 16 16
0 1 2 1 1 2 2 3 4 4 4 4 4 6 7 6 5 7 7 7 7 7 8 8 8 11 14 16 17 17 17 15 13 12 15 15 15 18 18 19 17 16 17 17 17
1 -0 2 2 1 2 2 2 3 5 4 5 5 6 6 6 7 6 7 9 9 7 8 9 6 8 12 14 15 16 17 17 15 13 13 18 19 20 19 17 15 16 17 17 16
1 0 1 -0 0 1 1 2 3 3 4 4 5 5 5 5 6 7 8 8 9 8 7 7 5 7 9 11 13 15 17 17 17 18 16 17 18 19 18 17 15 18 17 16 16
1 1 0 0 0 0 1 3 2 3 4 4 4 5 4 4 6 5 7 7 7 8 6 6 5 7 8 13 14 14 15 17 18 18 17 18 17 18 19 18 16 18 17 16 17
1 1 1 1 2 -0 -1 2 2 2 4 4 4 4 3 4 5 5 5 6 7 6 6 6 5 6 7 10 11 13 16 16 17 19 18 17 20 18 18 17 16 17 19 19 19

GFSSW_850_temp_030.txt.gz
Temp
7 8 9 10 10 12 13 13 13 13 14 14 15 16 16 17 17 17 17 19 19 20 20 20 21 19 19 21 22 23 25 26 28 28 29 28 29 27 26 27 27 27 27 27 26
7 7 8 8 9 9 9 9 10 11 12 13 14 15 15 15 16 17 18 19 19 19 19 19 20 20 21 22 23 24 26 27 29 29 29 29 28 28 26 27 27 28 27 27 25
7 7 7 7 7 8 8 9 8 8 9 10 11 12 13 14 13 17 18 20 20 21 20 19 21 21 22 23 24 24 26 28 28 28 28 28 27 28 27 27 27 28 27 26 26
7 7 7 7 7 7 7 7 8 9 8 8 8 9 11 12 18 17 17 17 18 20 20 19 20 21 23 24 24 25 26 26 27 27 27 27 26 27 27 27 26 26 26 26 26
5 6 6 6 7 7 8 8 7 7 7 8 8 7 8 9 13 15 16 16 16 17 17 19 20 21 24 24 25 26 26 26 25 25 26 26 26 26 26 26 25 26 26 26 26
4 4 5 5 6 7 7 7 7 7 7 7 8 8 5 9 12 14 15 16 16 15 16 18 20 22 23 24 25 25 26 26 25 25 25 26 26 26 26 25 26 26 26 26 26
4 4 4 5 5 6 6 6 7 7 8 8 7 4 4 8 13 11 14 15 13 14 17 17 19 20 22 23 23 24 25 26 25 25 26 25 25 26 26 26 26 26 26 26 25
4 3 4 4 5 5 6 6 7 7 8 8 8 3 5 9 9 13 13 13 12 13 14 17 18 18 20 21 22 24 24 24 26 26 25 25 24 28 27 27 27 26 26 26 25
3 3 3 4 4 5 5 6 7 7 8 8 5 4 10 9 8 11 10 10 13 13 13 15 17 18 20 20 22 24 23 24 25 27 26 25 25 28 27 27 26 25 26 26 25
3 3 3 4 4 5 6 7 7 6 5 5 5 6 9 11 11 10 11 10 11 14 13 14 17 20 21 21 22 23 23 24 25 27 25 25 25 27 27 26 26 26 26 25 25
4 4 4 4 4 4 5 5 8 8 6 9 11 9 11 11 11 11 11 10 11 13 16 16 18 19 21 22 23 24 24 25 25 27 25 25 26 27 28 26 26 26 26 26 25
4 4 4 4 4 5 4 5 4 3 5 7 8 8 9 9 9 10 11 12 12 15 17 19 18 22 22 23 22 22 23 24 25 26 26 25 25 27 27 27 26 26 26 26 26
4 4 4 4 4 4 3 4 3 3 5 8 9 9 10 9 9 10 11 13 15 15 17 19 20 22 22 22 22 22 22 23 23 25 25 24 23 24 26 27 26 26 25 26 26
4 4 4 4 3 3 4 3 3 3 6 12 11 11 10 9 11 10 11 13 15 15 17 18 22 22 22 22 23 22 23 22 23 22 22 24 23 24 26 26 27 26 26 27 26
3 3 3 2 2 3 4 3 3 4 8 12 12 11 11 12 12 13 12 12 14 16 17 18 19 21 22 22 23 23 24 23 22 22 22 23 22 24 25 25 26 27 26 27 26
3 4 3 2 1 2 3 2 3 5 8 12 13 12 13 12 12 12 13 12 13 15 17 18 21 21 22 23 23 23 23 22 22 22 21 22 22 23 24 25 26 28 27 27 24
4 4 3 1 2 1 2 4 5 7 12 11 11 12 13 12 12 11 12 13 13 13 14 17 18 20 22 22 23 22 21 20 20 20 20 23 22 23 24 26 26 28 27 25 22
4 3 2 2 2 2 2 4 6 10 10 11 11 11 12 12 11 11 10 10 15 15 16 15 16 19 21 22 21 21 22 22 20 21 22 23 22 24 25 26 26 26 27 25 22
5 3 3 2 2 2 3 5 8 8 8 8 10 10 12 12 11 11 9 6 9 15 15 16 17 21 21 22 23 21 22 24 23 24 23 25 24 24 24 26 27 27 26 24 22
2 3 4 1 2 2 4 6 7 8 8 9 8 10 9 11 10 11 9 5 6 10 11 15 15 21 21 22 23 23 23 21 23 21 21 24 24 23 26 27 27 27 27 25 21
3 5 3 2 2 2 4 6 7 8 7 8 8 8 9 10 11 11 9 7 4 8 10 13 14 19 21 20 22 22 22 23 23 23 22 22 24 25 25 27 27 28 27 23 21
3 7 3 2 5 2 4 6 5 7 7 8 8 8 8 10 10 10 9 8 6 7 8 13 13 15 20 22 23 23 23 22 22 21 23 24 24 24 26 26 28 29 25 22 21
4 3 3 3 5 5 6 7 7 8 8 7 7 9 9 8 8 9 9 8 7 7 7 8 13 16 18 21 22 22 23 23 23 24 22 23 23 26 26 26 26 25 23 21 21
3 5 5 4 3 3 4 7 7 8 8 8 7 8 8 9 10 9 10 7 6 6 6 7 11 16 18 20 21 21 22 23 22 22 23 23 24 26 26 27 26 25 22 21 21
3 5 3 5 4 3 5 6 7 7 7 8 7 7 7 7 9 10 8 8 7 6 7 9 12 15 16 16 16 19 22 22 22 22 22 24 23 26 28 26 26 24 22 22 22
3 2 4 4 4 5 6 7 6 6 5 6 8 8 7 7 7 8 9 9 6 5 6 9 10 14 14 16 17 18 20 22 22 22 23 23 23 26 27 26 26 24 23 23 22
1 1 1 4 4 4 5 6 5 5 6 7 6 6 7 8 7 8 8 8 9 9 9 7 10 13 14 17 17 17 19 21 22 23 23 22 24 25 25 25 26 25 23 24 23

GFSSW_850_temp_033.txt.gz
Temp
8 8 9 9 9 9 9 9 9 10 11 13 14 16 16 16 17 16 15 18 19 20 20 19 19 20 21 23 24 26 27 27 29 30 31 32 32 31 30 29 30 30 30 30 29
8 8 8 8 8 9 9 9 9 9 9 10 11 13 14 15 16 15 18 17 19 19 20 20 20 21 22 23 23 25 27 28 30 31 31 32 32 31 31 30 30 29 30 30 29
7 7 7 7 7 8 8 8 9 9 9 9 9 11 13 14 14 19 19 18 18 19 20 20 21 23 24 25 25 26 26 29 30 30 30 31 31 31 30 30 30 30 29 29 29
7 7 7 7 7 7 8 8 8 8 8 9 9 10 10 12 20 17 18 18 17 18 18 17 20 23 25 26 26 27 28 28 28 29 29 31 30 30 30 30 29 29 28 28 28
6 6 7 7 7 7 7 7 8 8 8 8 9 9 9 11 14 17 16 15 15 16 16 18 20 22 25 26 27 28 28 28 28 28 29 29 29 30 29 29 29 28 28 28 28
5 5 5 6 6 6 7 7 7 7 7 8 8 8 6 11 14 15 15 15 15 17 19 19 21 23 24 26 28 28 28 28 28 28 28 29 29 29 28 28 28 28 28 28 28
4 4 4 5 6 6 6 7 8 8 8 8 8 6 6 10 13 13 13 14 15 16 17 20 21 23 24 26 26 27 27 28 29 28 29 28 28 28 28 28 29 28 28 28 28
4 4 4 5 5 6 7 7 8 8 8 8 8 5 7 11 12 13 13 14 14 15 15 18 20 21 23 24 26 26 27 26 28 29 28 28 26 29 28 29 29 29 29 29 28
4 3 4 4 4 5 6 7 8 8 8 7 6 6 10 12 11 12 12 13 15 15 15 16 18 21 22 24 24 25 25 25 26 29 29 28 27 29 28 29 28 29 29 28 28
5 5 5 5 5 6 6 7 8 7 7 6 8 9 11 13 14 13 13 13 14 15 16 16 18 21 22 23 23 24 24 25 26 28 28 28 28 30 29 28 28 29 28 28 28
4 4 4 5 5 6 7 8 10 10 9 11 12 11 13 14 13 14 14 13 14 15 17 18 19 20 22 23 25 26 26 26 27 29 27 27 28 29 29 28 29 29 28 28 27
5 5 5 5 5 6 6 8 8 6 7 9 10 11 12 12 12 13 13 14 15 16 18 19 19 22 23 25 24 24 25 25 27 28 28 28 27 29 29 28 28 28 29 28 27
5 5 5 5 5 6 7 7 7 7 8 10 11 13 13 13 13 13 13 14 16 17 18 18 21 22 23 24 24 24 24 24 25 27 28 27 27 27 29 29 28 27 27 28 28
5 5 5 6 6 6 8 6 7 7 8 14 14 13 13 13 14 13 14 14 16 16 18 19 21 22 22 23 24 23 26 25 25 25 24 27 25 27 28 28 28 28 28 28 28
5 5 6 5 3 6 6 6 6 6 9 15 14 13 14 14 15 15 14 14 15 17 18 18 20 21 22 23 24 25 26 26 25 24 24 25 25 26 27 27 28 29 28 28 28
5 5 5 5 3 4 4 5 6 7 9 14 14 13 15 14 15 15 14 14 15 16 18 19 20 22 22 24 25 26 25 25 25 25 23 24 24 25 26 27 28 29 28 28 28
5 4 3 3 4 4 4 5 6 8 13 12 11 12 12 14 14 15 15 15 14 14 15 17 19 21 22 22 24 25 24 23 22 24 24 25 25 26 27 28 28 28 28 29 29
5 4 4 4 3 4 3 6 6 11 10 11 13 13 12 14 14 14 14 14 16 14 12 16 16 19 22 22 23 24 24 23 21 23 24 26 24 26 28 29 28 28 28 29 26
5 6 5 5 4 4 3 5 10 10 11 11 11 11 12 14 14 14 14 13 13 11 9 16 17 21 22 23 24 23 24 26 25 26 26 27 28 28 28 28 28 28 28 28 26
3 7 7 4 4 4 5 7 9 11 10 10 9 11 11 12 10 12 13 11 11 11 7 14 14 20 22 22 23 24 26 23 25 22 24 26 27 27 27 28 28 28 29 28 25
5 9 7 5 4 6 6 8 10 10 10 10 9 9 11 12 13 13 13 11 9 10 12 13 12 17 21 21 21 23 24 24 25 26 25 24 26 29 28 28 29 29 28 27 25
7 10 7 6 6 6 8 10 10 10 11 11 10 10 10 10 11 12 11 11 9 10 10 14 11 14 19 23 23 24 24 24 24 23 26 26 26 28 28 28 30 30 28 27 25
8 9 7 6 6 7 10 10 11 11 11 11 10 10 11 10 9 10 11 10 10 8 7 11 12 14 15 19 23 23 24 25 24 26 25 25 27 28 28 28 29 30 28 25 24
7 7 8 7 6 5 7 9 10 11 11 11 11 11 9 10 12 10 12 9 8 8 6 6 11 12 13 18 22 22 24 25 24 24 25 26 26 27 28 28 28 27 25 25 24
6 8 6 6 6 6 7 8 8 9 10 10 11 10 10 10 11 10 10 10 10 7 6 6 11 13 13 12 17 23 24 25 24 25 25 26 26 28 28 28 28 26 25 25 25
5 6 6 5 6 7 7 8 8 8 8 8 9 9 10 9 9 8 10 10 9 7 6 6 10 13 14 11 15 21 24 25 25 25 26 27 26 29 28 28 28 27 26 25 25
3 2 2 5 6 4 7 7 8 7 7 8 8 8 8 8 8 9 9 10 11 10 10 9 9 14 10 12 15 19 22 24 25 25 25 24 25 27 27 27 27 27 26 26 25